Location: ??????
(30.4877°N, 47.7837°E)
Time: 05:16:55
(UTC+00:00)

Daily predictions for brighter satellites

Satellite Brightness Start Highest point End
(mag) Time Altitude Azimuth Time Altitude Azimuth Time Altitude Azimuth
Cosmos 1606 4.1 00:00:23 10° NNE 00:03:54 36° E 00:07:25 10° SSE
Cosmos 2322 Rocket 3.8 00:02:31 17° W 00:03:55 18° WNW 00:07:45 10° NNW
IDEFIX/ARIANE 42P 2.5 00:00:06 10° NNE 00:05:23 86° ESE 00:08:32 25° S
CZ-2C R/B 2.7 00:02:48 10° NNE 00:06:36 82° E 00:08:07 36° S
STARLINK-1024 4.4 00:05:21 30° S 00:06:46 41° SE 00:10:41 10° ENE
CZ-2C R/B 4.4 00:03:10 10° NE 00:07:31 27° E 00:11:48 10° SSE
STARLINK-60 4.4 00:06:37 10° NNW 00:09:38 39° NE 00:12:39 10° ESE
Cosmos 2366 rocket 4.0 00:07:00 27° SSW 00:10:32 65° W 00:16:47 10° N
STARLINK-1035 4.2 00:10:09 30° S 00:11:44 47° SE 00:15:42 10° NE
Lacrosse 5 rocket 1.5 00:11:38 34° SSW 00:13:16 63° SE 00:17:10 10° NE
STARLINK-1032 4.1 00:14:55 30° SSW 00:16:41 53° SE 00:20:43 10° NE
ARIANE 5 R/B 3.4 00:13:50 10° N 00:18:13 32° WNW 00:19:58 25° WSW
USA 229 DEB 4.1 00:12:52 10° NW 00:20:03 51° WSW 00:27:25 10° S
USA 229 4.1 00:12:58 10° NW 00:20:09 51° WSW 00:27:32 10° S
STARLINK-1037 3.9 00:18:20 29° SSW 00:20:13 59° SE 00:24:16 10° NE
STARLINK-1011 3.9 00:19:42 29° SSW 00:21:38 61° SE 00:25:43 10° NE
NOSS 3-1 (C) 4.4 00:14:04 10° NW 00:21:49 48° WSW 00:30:14 10° S
MSX 3.8 00:20:41 10° NNE 00:26:27 89° WNW 00:31:40 13° SSW
Cosmos 1680 Rocket 4.2 00:21:30 10° S 00:26:33 52° ESE 00:31:41 10° NNE
STARLINK-1036 3.7 00:24:29 27° SSW 00:26:36 69° SE 00:30:44 10° NE
NOSS 3-1 (A) 4.2 00:21:25 10° NW 00:29:28 66° WSW 00:38:17 10° SSE
Cosmos 1821 Rocket 4.3 00:24:21 10° S 00:30:40 70° E 00:36:56 10° N
STARLINK-1444 3.6 00:28:53 10° NNW 00:31:09 41° NE 00:33:32 10° ESE
Cosmos 2237 Rocket 3.6 00:26:32 10° SSE 00:31:34 35° ESE 00:36:40 10° NE
STARLINK-1044 3.6 00:29:17 25° SW 00:31:36 79° SE 00:35:44 10° NE
STARLINK-1452 3.6 00:29:30 10° NNW 00:31:46 42° NE 00:34:09 10° ESE
Cosmos 923 Rocket 4.0 00:28:08 15° SSW 00:32:28 85° ESE 00:37:41 10° NNE
Cosmos 1633 3.3 00:29:23 10° S 00:32:51 52° E 00:36:22 10° NNE
STARLINK-1450 3.4 00:30:44 10° NNW 00:32:59 43° NE 00:35:21 10° ESE
STARLINK-1436 (VISORSAT) 3.4 00:30:45 10° NNW 00:33:01 44° NE 00:35:25 10° ESE
STARLINK-1392 3.4 00:30:51 10° NNW 00:33:05 44° NE 00:35:28 10° ESE
STARLINK-1399 3.4 00:30:52 10° NNW 00:33:06 44° NE 00:35:29 10° ESE
STARLINK-1398 3.4 00:30:50 10° NNW 00:33:06 44° NE 00:35:31 10° ESE
STARLINK-1415 3.4 00:30:52 10° NNW 00:33:07 44° NE 00:35:29 10° ESE
STARLINK-1394 3.4 00:30:52 10° NNW 00:33:07 44° NE 00:35:30 10° ESE
STARLINK-1395 3.4 00:30:53 10° NNW 00:33:07 44° NE 00:35:30 10° ESE
STARLINK-1393 3.4 00:30:53 10° NNW 00:33:08 44° NE 00:35:30 10° ESE
STARLINK-1414 3.4 00:30:52 10° NNW 00:33:08 44° NE 00:35:31 10° ESE
STARLINK-1396 3.4 00:30:53 10° NNW 00:33:08 44° NE 00:35:31 10° ESE
STARLINK-1416 3.4 00:30:52 10° NNW 00:33:08 44° NE 00:35:32 10° ESE
STARLINK-1397 3.4 00:30:54 10° NNW 00:33:09 44° NE 00:35:31 10° ESE
STARLINK-1401 3.4 00:30:54 10° NNW 00:33:09 44° NE 00:35:31 10° ESE
STARLINK-1404 3.4 00:30:54 10° NNW 00:33:09 44° NE 00:35:32 10° ESE
STARLINK-1453 3.4 00:30:55 10° NNW 00:33:10 44° NE 00:35:32 10° ESE
STARLINK-1408 3.4 00:30:54 10° NNW 00:33:10 44° NE 00:35:33 10° ESE
STARLINK-1419 3.4 00:30:54 10° NNW 00:33:10 44° NE 00:35:34 10° ESE
STARLINK-1402 3.4 00:30:56 10° NNW 00:33:10 44° NE 00:35:33 10° ESE
STARLINK-1417 3.4 00:30:56 10° NNW 00:33:10 44° NE 00:35:33 10° ESE
STARLINK-1413 3.4 00:30:57 10° NNW 00:33:11 44° NE 00:35:34 10° ESE
STARLINK-1406 3.4 00:30:57 10° NNW 00:33:12 44° NE 00:35:35 10° ESE
STARLINK-1420 3.4 00:30:56 10° NNW 00:33:12 44° NE 00:35:36 10° ESE
STARLINK-1440 3.4 00:30:59 10° NNW 00:33:13 44° NE 00:35:36 10° ESE
STARLINK-1422 3.4 00:30:58 10° NNW 00:33:13 44° NE 00:35:38 10° ESE
STARLINK-1460 3.4 00:30:58 10° NNW 00:33:13 44° NE 00:35:38 10° ESE
STARLINK-1458 3.4 00:30:58 10° NNW 00:33:14 44° NE 00:35:38 10° ESE
STARLINK-1445 3.4 00:31:00 10° NNW 00:33:14 44° NE 00:35:37 10° ESE
STARLINK-1443 3.4 00:31:01 10° NNW 00:33:15 44° NE 00:35:38 10° ESE
STARLINK-1454 3.4 00:31:01 10° NNW 00:33:15 44° NE 00:35:38 10° ESE
STARLINK-1457 3.4 00:31:01 10° NNW 00:33:16 44° NE 00:35:39 10° ESE
STARLINK-1437 3.4 00:31:00 10° NNW 00:33:16 44° NE 00:35:41 10° ESE
STARLINK-1456 3.4 00:31:02 10° NNW 00:33:16 44° NE 00:35:39 10° ESE
STARLINK-1451 3.4 00:31:02 10° NNW 00:33:16 44° NE 00:35:40 10° ESE
STARLINK-1446 3.4 00:31:01 10° NNW 00:33:18 44° NE 00:35:42 10° ESE
STARLINK-1442 3.4 00:31:03 10° NNW 00:33:18 44° NE 00:35:41 10° ESE
STARLINK-1405 3.4 00:31:05 10° NNW 00:33:20 44° NE 00:35:43 10° ESE
STARLINK-1421 3.4 00:31:05 10° NNW 00:33:20 44° NE 00:35:43 10° ESE
STARLINK-1447 3.4 00:31:04 10° NNW 00:33:21 44° NE 00:35:45 10° ESE
STARLINK-1400 3.4 00:31:06 10° NNW 00:33:21 44° NE 00:35:44 10° ESE
STARLINK-1410 3.4 00:31:06 10° NNW 00:33:21 44° NE 00:35:44 10° ESE
STARLINK-1455 3.4 00:31:04 10° NNW 00:33:21 44° NE 00:35:45 10° ESE
STARLINK-1423 3.4 00:31:05 10° NNW 00:33:21 44° NE 00:35:45 10° ESE
STARLINK-1407 3.4 00:31:07 10° NNW 00:33:21 44° NE 00:35:44 10° ESE
STARLINK-1441 3.4 00:31:05 10° NNW 00:33:21 44° NE 00:35:46 10° ESE
STARLINK-1439 3.4 00:31:07 10° NNW 00:33:22 44° NE 00:35:45 10° ESE
STARLINK-1409 3.4 00:31:08 10° NNW 00:33:22 44° NE 00:35:45 10° ESE
STARLINK-1449 3.4 00:31:06 10° NNW 00:33:22 44° NE 00:35:47 10° ESE
STARLINK-1448 3.4 00:31:06 10° NNW 00:33:23 44° NE 00:35:47 10° ESE
STARLINK-1351 3.4 00:31:08 10° NNW 00:33:23 44° NE 00:35:46 10° ESE
STARLINK-1370 3.4 00:31:08 10° NNW 00:33:23 44° NE 00:35:46 10° ESE
STARLINK-1418 3.4 00:31:09 10° NNW 00:33:23 44° NE 00:35:46 10° ESE
STARLINK-1434 3.4 00:31:09 10° NNW 00:33:23 44° NE 00:35:47 10° ESE
STARLINK-1403 3.4 00:31:10 10° NNW 00:33:24 44° NE 00:35:47 10° ESE
STARLINK-1433 3.4 00:31:11 10° NNW 00:33:25 44° NE 00:35:48 10° ESE
STARLINK-1411 3.4 00:31:12 10° NNW 00:33:26 44° NE 00:35:50 10° ESE
STARLINK-1438 3.4 00:31:12 10° NNW 00:33:27 44° NE 00:35:50 10° ESE
STARLINK-1412 3.4 00:31:14 10° NNW 00:33:30 45° NE 00:35:55 10° ESE
GEOS 3 Rocket 4.3 00:29:39 10° S 00:34:05 30° WSW 00:38:37 10° NW
STARLINK-1047 3.6 00:34:02 23° SW 00:36:32 88° SE 00:40:40 10° NE
Cosmos 1346 Rocket 4.0 00:33:21 10° SSE 00:37:08 42° E 00:40:55 10° NNE
Cosmos 1825 4.1 00:38:23 13° W 00:38:43 13° WNW 00:40:38 10° NW
COSMOS 2428 2.8 00:36:12 17° SSW 00:40:33 64° WNW 00:46:11 10° NNE
NOSS 0 Rocket 4.3 00:36:35 10° S 00:42:38 64° ESE 00:48:42 10° NNE
Cosmos 1727 Rocket 3.9 00:37:17 10° N 00:43:26 75° W 00:49:35 10° S
Cosmos 1328 Rocket 3.5 00:41:53 10° NNW 00:46:12 63° W 00:50:28 10° S
STARLINK-1059 3.6 00:43:37 19° SW 00:46:31 73° NW 00:50:38 10° NE
Cosmos 1844 Rocket 2.6 00:41:11 10° NNW 00:46:46 77° WSW 00:52:18 10° SSE
CZ-4B R/B 2.7 00:45:58 10° SSE 00:48:51 39° ENE 00:51:45 10° N
Cosmos 1818 3.7 00:46:45 15° SW 00:51:15 63° WNW 00:56:39 10° NNE
STARLINK-1057 3.7 00:48:24 17° SW 00:51:28 64° NW 00:55:35 10° NE
PSLV R/B 3.5 00:48:41 10° N 00:52:50 65° WNW 00:56:58 10° SSW
STARLINK-1034 3.9 00:53:12 15° WSW 00:56:28 57° NW 01:00:33 10° NE
Cosmos 2228 Rocket 4.3 00:52:12 10° N 00:56:34 46° E 01:00:56 10° SSE
CZ-3 R/B 3.7 00:19:09 11° WSW 00:56:41 75° S 01:05:22 10° E
Landsat 5 4.1 00:53:09 10° S 00:57:22 39° W 01:01:36 10° NNW
Cosmos 1340 3.0 00:57:44 10° SSW 01:01:20 45° W 01:04:58 10° N
STARLINK-1068 4.1 00:57:58 13° WSW 01:01:26 50° NW 01:05:28 10° NNE
Cosmos 1933 3.8 00:58:28 10° NNW 01:02:15 40° W 01:05:59 10° SSW
Cosmos 2360 Rocket 4.3 01:01:11 10° WNW 01:02:39 11° NW 01:04:08 10° NW
Iridium 4 Rocket 3.4 00:59:04 10° S 01:03:51 83° W 01:09:10 10° N
Cosmos 1500 Rocket 3.7 01:00:45 10° SSW 01:05:06 56° W 01:09:29 10° N
STARLINK-1027 4.2 01:02:46 12° WSW 01:06:27 45° NW 01:10:26 10° NNE
PAYLOAD A 4.0 01:01:47 10° N 01:06:28 57° WNW 01:11:16 10° SSW
STARLINK-1060 4.4 01:07:32 10° WSW 01:11:25 40° NW 01:15:20 10° NNE
Cosmos 2333 Rocket 3.4 01:07:17 10° WSW 01:11:59 27° WNW 01:16:45 10° N
Cosmos 1805 Rocket 3.7 01:12:34 10° S 01:16:58 84° E 01:21:22 10° N
STARLINK-52 2.9 01:13:58 10° NW 01:17:10 88° NE 01:20:21 10° SE
Cosmos 2344 3.9 01:10:27 10° SW 01:17:57 52° WNW 01:25:22 10° NNE
FUSE 4.4 01:13:50 10° WSW 01:18:57 45° S 01:24:05 10° ESE
Cosmos 2219 Rocket 3.5 01:16:03 10° WSW 01:20:29 24° WNW 01:24:57 10° N
CZ-3C R/B 4.3 01:55:45 10° W 02:19:13 33° SW 02:24:04 10° SSE
